SWR253 LLBG-LSZH

Flight info

Callsign SWR253
Flight time N/A
Altitude 32000
Route DCT MERVA P68 APLON DCT OTHON UN128 RDS/N0456F340 UN128 FSK UL608 DISOR DCT LONTA UL608 DOLEV/N0449F360 DCT GORPA DCT ERKIR DCT KPT L856 NEGRA DCT
Aircraft A321/M-SDE3FGHIRWY/LB1

Departure

Time 2026-05-06 09:54
Airport Ben Gurion International Airport (LLBG)

Arrival

Time N/A
Airport Zürich Airport (LSZH)
Time Latitude Longitude Altitude Speed Heading
2026-05-06 09:30 32.00506 34.87111 120 ft 0 kts 90°
2026-05-06 09:43 32.00507 34.87089 116 ft 4 kts 97°
2026-05-06 09:43 32.00512 34.87058 116 ft 4 kts 107°
2026-05-06 09:43 32.00521 34.87028 118 ft 4 kts 109°
2026-05-06 09:44 32.00526 34.87002 115 ft 1 kts 90°
2026-05-06 09:44 32.00529 34.86975 115 ft 4 kts 124°
2026-05-06 09:44 32.00548 34.86959 115 ft 4 kts 165°
2026-05-06 09:44 32.00567 34.86948 116 ft 3 kts 124°
2026-05-06 09:45 32.00579 34.86921 116 ft 4 kts 104°
2026-05-06 09:45 32.00582 34.86896 117 ft 0 kts 82°
2026-05-06 09:47 32.00590 34.86944 118 ft 14 kts 70°
2026-05-06 09:47 32.00670 34.87025 117 ft 16 kts 28°
2026-05-06 09:47 32.00759 34.87086 120 ft 14 kts 33°
2026-05-06 09:47 32.00833 34.87150 117 ft 13 kts 36°
2026-05-06 09:48 32.00900 34.87204 116 ft 11 kts 52°
2026-05-06 09:48 32.00889 34.87279 119 ft 9 kts 120°
2026-05-06 09:48 32.00858 34.87335 117 ft 8 kts 122°
2026-05-06 09:48 32.00823 34.87409 116 ft 15 kts 118°
2026-05-06 09:49 32.00758 34.87539 118 ft 19 kts 122°
2026-05-06 09:49 32.00687 34.87663 115 ft 18 kts 120°
2026-05-06 09:49 32.00628 34.87783 117 ft 17 kts 122°
2026-05-06 09:49 32.00583 34.87897 120 ft 15 kts 85°
2026-05-06 09:50 32.00654 34.87967 116 ft 13 kts 25°
2026-05-06 09:50 32.00751 34.88034 115 ft 22 kts 33°
2026-05-06 09:50 32.00910 34.88153 118 ft 30 kts 31°
2026-05-06 09:50 32.01083 34.88275 118 ft 28 kts 31°
2026-05-06 09:51 32.01243 34.88394 117 ft 27 kts 33°
2026-05-06 09:51 32.01379 34.88534 119 ft 26 kts 52°
2026-05-06 09:51 32.01469 34.88706 117 ft 24 kts 68°
2026-05-06 09:51 32.01505 34.88893 118 ft 23 kts 83°
2026-05-06 09:52 32.01531 34.89070 119 ft 22 kts 79°
2026-05-06 09:52 32.01607 34.89177 119 ft 16 kts 357°
2026-05-06 09:52 32.01712 34.89139 116 ft 16 kts 347°
2026-05-06 09:52 32.01741 34.89073 116 ft 7 kts 256°
2026-05-06 09:53 32.01719 34.88915 121 ft 48 kts 261°
2026-05-06 09:53 32.01618 34.88269 121 ft 109 kts 259°
2026-05-06 09:53 32.01454 34.87204 118 ft 154 kts 259°
2026-05-06 09:53 32.01244 34.85795 382 ft 182 kts 260°
2026-05-06 09:54 32.01010 34.84399 1152 ft 170 kts 260°
2026-05-06 09:54 32.00738 34.83032 1679 ft 173 kts 257°
2026-05-06 09:54 32.00430 34.81591 1824 ft 195 kts 257°
2026-05-06 09:54 32.00080 34.79953 1996 ft 218 kts 257°
2026-05-06 09:55 31.99701 34.78165 2455 ft 228 kts 257°
2026-05-06 09:55 31.99315 34.76285 2911 ft 245 kts 259°
2026-05-06 09:55 31.99364 34.74266 3591 ft 252 kts 285°
2026-05-06 09:55 31.99946 34.72300 4378 ft 257 kts 289°
2026-05-06 09:56 32.00564 34.70314 5132 ft 260 kts 289°
2026-05-06 09:56 32.01192 34.68300 5862 ft 264 kts 289°
2026-05-06 09:56 32.01824 34.66278 6530 ft 269 kts 289°
2026-05-06 09:56 32.02464 34.64190 7243 ft 272 kts 286°
2026-05-06 09:57 32.02746 34.61993 7885 ft 274 kts 273°
2026-05-06 09:57 32.02870 34.59746 8056 ft 274 kts 273°
2026-05-06 09:57 32.02987 34.57512 8102 ft 273 kts 273°
2026-05-06 09:57 32.03100 34.55283 8238 ft 275 kts 272°
2026-05-06 09:58 32.03214 34.53035 9014 ft 275 kts 273°
2026-05-06 09:58 32.03332 34.50784 9761 ft 276 kts 273°
2026-05-06 09:58 32.03451 34.48520 10351 ft 282 kts 273°
2026-05-06 09:58 32.03576 34.46155 10490 ft 303 kts 273°
2026-05-06 09:59 32.03713 34.43587 10616 ft 324 kts 273°
2026-05-06 09:59 32.03865 34.40861 10755 ft 342 kts 273°
2026-05-06 09:59 32.04029 34.38018 11113 ft 352 kts 274°
2026-05-06 09:59 32.04196 34.35124 11670 ft 356 kts 274°
2026-05-06 10:00 32.04365 34.32204 12272 ft 358 kts 274°
2026-05-06 10:00 32.04536 34.29266 12883 ft 361 kts 274°
2026-05-06 10:00 32.04711 34.26308 13481 ft 363 kts 275°
2026-05-06 10:00 32.05172 34.23367 14043 ft 366 kts 285°
2026-05-06 10:01 32.06108 34.20612 14571 ft 370 kts 296°
2026-05-06 10:01 32.07420 34.17997 15122 ft 371 kts 300°
2026-05-06 10:01 32.08754 34.15394 15671 ft 372 kts 299°
2026-05-06 10:01 32.10093 34.12774 16212 ft 373 kts 299°
2026-05-06 10:02 32.11428 34.10151 16732 ft 374 kts 299°
2026-05-06 10:02 32.12767 34.07510 17246 ft 376 kts 299°
2026-05-06 10:02 32.14109 34.04855 17757 ft 377 kts 299°
2026-05-06 10:02 32.15456 34.02193 18261 ft 379 kts 299°
2026-05-06 10:03 32.16792 33.99554 18718 ft 380 kts 299°
2026-05-06 10:03 32.18212 33.96917 19156 ft 382 kts 301°
2026-05-06 10:03 32.19726 33.94340 19609 ft 383 kts 303°
2026-05-06 10:03 32.21296 33.91798 20076 ft 383 kts 304°
2026-05-06 10:04 32.22883 33.89274 20522 ft 384 kts 304°
2026-05-06 10:04 32.24467 33.86737 20961 ft 384 kts 304°
2026-05-06 10:04 32.26041 33.84177 21402 ft 385 kts 303°
2026-05-06 10:04 32.27605 33.81599 21833 ft 387 kts 303°
2026-05-06 10:05 32.29147 33.79035 22244 ft 388 kts 303°
2026-05-06 10:05 32.30709 33.76429 22641 ft 390 kts 303°
2026-05-06 10:05 32.32276 33.73811 23055 ft 391 kts 302°
2026-05-06 10:05 32.33849 33.71181 23458 ft 392 kts 302°
2026-05-06 10:06 32.35424 33.68549 23830 ft 393 kts 303°
2026-05-06 10:06 32.37008 33.65903 24167 ft 394 kts 303°
2026-05-06 10:06 32.38594 33.63249 24492 ft 396 kts 302°
2026-05-06 10:06 32.40185 33.60583 24802 ft 397 kts 302°
2026-05-06 10:07 32.41781 33.57909 25103 ft 399 kts 302°
2026-05-06 10:07 32.43392 33.55216 25397 ft 401 kts 302°
2026-05-06 10:07 32.44984 33.52555 25671 ft 403 kts 302°
2026-05-06 10:07 32.46605 33.49842 25948 ft 405 kts 302°
2026-05-06 10:08 32.48232 33.47112 26218 ft 406 kts 302°
2026-05-06 10:08 32.49865 33.44367 26503 ft 408 kts 302°
2026-05-06 10:08 32.51503 33.41614 26781 ft 410 kts 302°
2026-05-06 10:08 32.53149 33.38847 27058 ft 412 kts 302°
2026-05-06 10:09 32.54797 33.36069 27338 ft 413 kts 302°
2026-05-06 10:09 32.56431 33.33312 27594 ft 415 kts 302°
2026-05-06 10:09 32.58092 33.30510 27879 ft 416 kts 302°
2026-05-06 10:09 32.59754 33.27710 28245 ft 415 kts 302°
2026-05-06 10:10 32.61410 33.24921 28614 ft 414 kts 302°
2026-05-06 10:10 32.63068 33.22134 28975 ft 413 kts 301°
2026-05-06 10:10 32.64719 33.19351 29330 ft 412 kts 301°
2026-05-06 10:10 32.66363 33.16574 29678 ft 411 kts 301°
2026-05-06 10:11 32.68001 33.13809 30048 ft 409 kts 302°
2026-05-06 10:11 32.69632 33.11048 30395 ft 408 kts 301°
2026-05-06 10:11 32.71255 33.08293 30677 ft 407 kts 301°
2026-05-06 10:11 32.72855 33.05572 30996 ft 406 kts 301°
2026-05-06 10:12 32.74471 33.02824 31293 ft 405 kts 301°
2026-05-06 10:12 32.76084 33.00080 31572 ft 405 kts 301°
2026-05-06 10:12 32.77698 32.97337 31844 ft 405 kts 301°
2026-05-06 10:12 32.79320 32.94586 32061 ft 406 kts 301°
2026-05-06 10:13 32.82535 32.89116 32110 ft 401 kts 301°
2026-05-06 10:13 32.85692 32.83716 32110 ft 400 kts 301°
2026-05-06 10:14 32.88868 32.78288 32116 ft 400 kts 301°
2026-05-06 10:14 32.92044 32.72859 32109 ft 400 kts 301°
2026-05-06 10:15 32.95212 32.67422 32105 ft 399 kts 301°
2026-05-06 10:15 32.98382 32.61990 32107 ft 399 kts 301°
2026-05-06 10:16 33.01527 32.56594 32114 ft 399 kts 301°
2026-05-06 10:16 33.04687 32.51162 32111 ft 399 kts 301°
2026-05-06 10:17 33.07833 32.45727 32112 ft 398 kts 301°
2026-05-06 10:17 33.10978 32.40296 32107 ft 398 kts 301°
2026-05-06 10:18 33.14129 32.34859 32103 ft 398 kts 301°
2026-05-06 10:18 33.17249 32.29459 32100 ft 398 kts 301°
2026-05-06 10:19 33.20386 32.24019 32113 ft 398 kts 301°
2026-05-06 10:19 33.23526 32.18574 32105 ft 398 kts 301°
2026-05-06 10:20 33.26669 32.13122 32098 ft 398 kts 301°
2026-05-06 10:20 33.29781 32.07708 32096 ft 398 kts 301°
2026-05-06 10:21 33.32913 32.02241 32096 ft 398 kts 302°
2026-05-06 10:21 33.36046 31.96776 32090 ft 398 kts 302°
2026-05-06 10:22 33.39172 31.91303 32092 ft 399 kts 302°
2026-05-06 10:22 33.42301 31.85825 32089 ft 399 kts 302°
2026-05-06 10:23 33.45426 31.80338 32087 ft 399 kts 301°
2026-05-06 10:23 33.48526 31.74892 32085 ft 399 kts 302°
2026-05-06 10:24 33.51654 31.69389 32086 ft 399 kts 302°
2026-05-06 10:24 33.54779 31.63889 32087 ft 400 kts 302°
2026-05-06 10:25 33.57907 31.58374 32088 ft 400 kts 302°
2026-05-06 10:25 33.61001 31.52896 32089 ft 400 kts 302°
2026-05-06 10:26 33.64125 31.47370 32126 ft 400 kts 302°
2026-05-06 10:26 33.67241 31.41852 32117 ft 399 kts 302°
2026-05-06 10:27 33.70353 31.36332 32114 ft 399 kts 302°
2026-05-06 10:27 33.73437 31.30851 32106 ft 399 kts 302°
2026-05-06 10:28 33.76532 31.25324 32101 ft 399 kts 302°
2026-05-06 10:28 33.79627 31.19792 32088 ft 399 kts 302°
2026-05-06 10:29 33.82735 31.14257 32086 ft 399 kts 302°
2026-05-06 10:29 33.85838 31.08722 32087 ft 399 kts 302°
2026-05-06 10:30 33.88921 31.03212 32091 ft 400 kts 302°
2026-05-06 10:30 33.92022 30.97631 32100 ft 405 kts 302°
2026-05-06 10:31 33.95202 30.91907 32099 ft 415 kts 302°
2026-05-06 10:31 33.98420 30.86112 32107 ft 416 kts 302°
2026-05-06 10:32 34.01642 30.80312 32100 ft 417 kts 302°
2026-05-06 10:32 34.04841 30.74544 32099 ft 417 kts 302°
2026-05-06 10:33 34.08054 30.68733 32128 ft 416 kts 302°
2026-05-06 10:33 34.11262 30.62918 32121 ft 416 kts 302°
2026-05-06 10:34 34.14462 30.57101 32115 ft 416 kts 302°
2026-05-06 10:34 34.17639 30.51328 32109 ft 415 kts 302°
2026-05-06 10:35 34.20837 30.45514 32104 ft 415 kts 302°
2026-05-06 10:35 34.24030 30.39701 32095 ft 415 kts 302°
2026-05-06 10:36 34.27214 30.33877 32091 ft 416 kts 302°
2026-05-06 10:36 34.30406 30.28045 32087 ft 416 kts 302°
2026-05-06 10:37 34.33573 30.22241 32088 ft 416 kts 302°
2026-05-06 10:37 34.36767 30.16384 32088 ft 417 kts 302°
2026-05-06 10:38 34.39952 30.10537 32089 ft 417 kts 302°
2026-05-06 10:38 34.43121 30.04695 32094 ft 418 kts 302°
2026-05-06 10:39 34.46499 29.98971 32094 ft 420 kts 311°
2026-05-06 10:39 34.50605 29.93926 32097 ft 420 kts 312°
2026-05-06 10:40 34.54715 29.88877 32096 ft 420 kts 312°
2026-05-06 10:40 34.58809 29.83822 32095 ft 420 kts 312°
2026-05-06 10:41 34.62876 29.78800 32088 ft 420 kts 313°
2026-05-06 10:41 34.66973 29.73736 32088 ft 420 kts 312°
2026-05-06 10:42 34.71068 29.68655 32085 ft 420 kts 312°
2026-05-06 10:42 34.75163 29.63577 32087 ft 421 kts 312°
2026-05-06 10:43 34.79230 29.58525 32088 ft 421 kts 312°
2026-05-06 10:44 34.85364 29.50874 32104 ft 421 kts 313°
2026-05-06 10:44 34.89457 29.45771 32106 ft 421 kts 313°
2026-05-06 10:45 34.93545 29.40674 32104 ft 421 kts 313°
2026-05-06 10:45 34.97626 29.35560 32102 ft 420 kts 313°
2026-05-06 10:46 35.02043 29.30952 32097 ft 422 kts 321°
2026-05-06 10:46 35.06756 29.26672 32096 ft 422 kts 321°
2026-05-06 10:47 35.11466 29.22376 32197 ft 422 kts 321°
2026-05-06 10:47 35.13802 29.20240 32346 ft 416 kts 321°
2026-05-06 10:47 35.16081 29.18153 32500 ft 414 kts 321°
2026-05-06 10:47 35.18374 29.16053 32627 ft 412 kts 321°
2026-05-06 10:48 35.20667 29.13953 32763 ft 411 kts 321°
2026-05-06 10:48 35.22956 29.11857 32890 ft 411 kts 321°
2026-05-06 10:48 35.25212 29.09785 33027 ft 411 kts 321°
2026-05-06 10:48 35.27500 29.07681 33152 ft 410 kts 321°
2026-05-06 10:49 35.29786 29.05581 33284 ft 410 kts 321°
2026-05-06 10:49 35.32069 29.03487 33417 ft 410 kts 321°
2026-05-06 10:49 35.34349 29.01399 33548 ft 410 kts 321°
2026-05-06 10:49 35.36604 28.99331 33682 ft 410 kts 321°
2026-05-06 10:50 35.38885 28.97230 33822 ft 410 kts 321°
2026-05-06 10:50 35.41162 28.95131 33931 ft 409 kts 321°
2026-05-06 10:50 35.43432 28.93039 34084 ft 408 kts 321°
2026-05-06 10:50 35.45701 28.90943 34207 ft 408 kts 321°
2026-05-06 10:51 35.47963 28.88849 34327 ft 408 kts 321°
2026-05-06 10:51 35.50232 28.86749 34447 ft 407 kts 321°
2026-05-06 10:51 35.52494 28.84658 34565 ft 407 kts 321°
2026-05-06 10:51 35.54754 28.82569 34684 ft 407 kts 321°
2026-05-06 10:52 35.56984 28.80508 34801 ft 407 kts 321°
2026-05-06 10:52 35.59242 28.78419 34926 ft 406 kts 321°
2026-05-06 10:52 35.61498 28.76328 35059 ft 406 kts 321°
2026-05-06 10:53 35.65999 28.72138 35094 ft 405 kts 321°
2026-05-06 10:53 35.70492 28.67959 35080 ft 405 kts 321°
2026-05-06 10:54 35.74986 28.63784 35088 ft 404 kts 321°
2026-05-06 10:54 35.79423 28.59645 35084 ft 404 kts 321°
2026-05-06 10:55 35.83894 28.55458 35087 ft 404 kts 321°
2026-05-06 10:55 35.88377 28.51268 35090 ft 404 kts 321°
2026-05-06 10:56 35.92855 28.47085 35095 ft 404 kts 321°
2026-05-06 10:56 35.97336 28.42877 35094 ft 404 kts 321°
2026-05-06 10:57 36.01773 28.38697 35095 ft 404 kts 321°
2026-05-06 10:57 36.06248 28.34482 35104 ft 404 kts 321°
2026-05-06 10:58 36.10718 28.30275 35098 ft 403 kts 321°
2026-05-06 10:58 36.15168 28.26073 35094 ft 402 kts 321°
2026-05-06 10:59 36.19576 28.21891 35088 ft 402 kts 321°
2026-05-06 10:59 36.24019 28.17675 35087 ft 402 kts 321°
2026-05-06 11:00 36.28447 28.13466 35092 ft 401 kts 321°
2026-05-06 11:00 36.32888 28.09256 35116 ft 401 kts 323°
2026-05-06 11:01 36.37841 28.06029 35098 ft 403 kts 334°
2026-05-06 11:01 36.42909 28.03210 35100 ft 402 kts 333°
2026-05-06 11:02 36.48006 28.00361 35100 ft 401 kts 333°
2026-05-06 11:02 36.53106 27.97569 35096 ft 401 kts 335°
2026-05-06 11:03 36.58275 27.94908 35105 ft 401 kts 335°
2026-05-06 11:03 36.63437 27.92268 35097 ft 401 kts 335°
2026-05-06 11:04 36.68540 27.89628 35089 ft 401 kts 335°
2026-05-06 11:04 36.73687 27.86920 35086 ft 401 kts 334°
2026-05-06 11:05 36.78803 27.84165 35089 ft 401 kts 334°
2026-05-06 11:05 36.83913 27.81405 35104 ft 400 kts 334°
2026-05-06 11:06 36.89019 27.78660 35098 ft 400 kts 334°
2026-05-06 11:06 36.94100 27.75936 35095 ft 400 kts 334°
2026-05-06 11:07 36.99188 27.73195 35092 ft 400 kts 334°
2026-05-06 11:07 37.04313 27.70435 35094 ft 400 kts 334°
2026-05-06 11:08 37.09419 27.67683 35113 ft 400 kts 334°
2026-05-06 11:08 37.14499 27.64937 35108 ft 400 kts 334°
2026-05-06 11:09 37.19601 27.62179 35100 ft 399 kts 334°
2026-05-06 11:09 37.24697 27.59407 35095 ft 399 kts 334°
2026-05-06 11:10 37.29800 27.56633 35078 ft 399 kts 335°
2026-05-06 11:10 37.34921 27.53938 35077 ft 399 kts 335°
2026-05-06 11:11 37.40022 27.51287 35069 ft 399 kts 335°
2026-05-06 11:11 37.45154 27.48605 35067 ft 400 kts 335°
2026-05-06 11:12 37.50286 27.45904 35055 ft 399 kts 335°
2026-05-06 11:12 37.55357 27.43074 35070 ft 399 kts 333°
2026-05-06 11:13 37.60387 27.40129 35090 ft 398 kts 333°
2026-05-06 11:13 37.65384 27.37238 35086 ft 399 kts 334°
2026-05-06 11:14 37.70445 27.34479 35090 ft 399 kts 335°
2026-05-06 11:14 37.75559 27.31721 35090 ft 399 kts 335°
2026-05-06 11:15 37.80663 27.28942 35089 ft 399 kts 335°
2026-05-06 11:15 37.85696 27.26176 35092 ft 399 kts 335°
2026-05-06 11:16 37.90793 27.23378 35090 ft 399 kts 335°
2026-05-06 11:16 37.95877 27.20587 35090 ft 399 kts 335°
2026-05-06 11:17 38.00983 27.17771 35091 ft 399 kts 335°
2026-05-06 11:17 38.06069 27.14957 35087 ft 399 kts 335°
2026-05-06 11:18 38.11123 27.12160 35093 ft 398 kts 335°
2026-05-06 11:18 38.16201 27.09357 35092 ft 398 kts 335°
2026-05-06 11:19 38.21269 27.06556 35086 ft 398 kts 335°
2026-05-06 11:19 38.26344 27.03737 35084 ft 398 kts 335°
2026-05-06 11:20 38.31327 27.00792 35095 ft 397 kts 328°
2026-05-06 11:20 38.35641 26.96422 35083 ft 397 kts 319°
2026-05-06 11:21 38.39810 26.91807 35067 ft 397 kts 320°
2026-05-06 11:21 38.43994 26.87205 35065 ft 397 kts 320°
2026-05-06 11:22 38.48162 26.82598 35078 ft 397 kts 319°
2026-05-06 11:22 38.52283 26.78021 35087 ft 396 kts 319°
2026-05-06 11:23 38.56442 26.73392 35095 ft 396 kts 319°
2026-05-06 11:23 38.60595 26.68776 35104 ft 396 kts 320°
2026-05-06 11:24 38.64744 26.64162 35097 ft 396 kts 319°
2026-05-06 11:24 38.68901 26.59515 35097 ft 397 kts 319°
2026-05-06 11:25 38.73031 26.54895 35088 ft 396 kts 319°
2026-05-06 11:25 38.77174 26.50256 35103 ft 395 kts 319°
2026-05-06 11:26 38.81309 26.45609 35104 ft 394 kts 319°
2026-05-06 11:26 38.85434 26.41018 35105 ft 394 kts 320°
2026-05-06 11:27 38.89632 26.36577 35112 ft 394 kts 321°
2026-05-06 11:27 38.93884 26.32132 35108 ft 394 kts 321°
2026-05-06 11:28 38.98127 26.27655 35104 ft 394 kts 321°
2026-05-06 11:28 39.02347 26.23158 35101 ft 394 kts 321°
2026-05-06 11:29 39.06557 26.18665 35105 ft 393 kts 321°
2026-05-06 11:29 39.10733 26.14197 35107 ft 392 kts 321°
2026-05-06 11:30 39.14927 26.09697 35114 ft 392 kts 321°
2026-05-06 11:30 39.19127 26.05195 35120 ft 393 kts 321°
2026-05-06 11:31 39.23324 26.00690 35112 ft 393 kts 321°
2026-05-06 11:31 39.27515 25.96172 35107 ft 392 kts 321°
2026-05-06 11:32 39.31668 25.91662 35092 ft 392 kts 320°
2026-05-06 11:32 39.35802 25.87057 35096 ft 393 kts 320°
2026-05-06 11:33 39.39925 25.82431 35099 ft 393 kts 320°
2026-05-06 11:33 39.44054 25.77799 35109 ft 393 kts 320°
2026-05-06 11:34 39.48156 25.73208 35107 ft 393 kts 320°
2026-05-06 11:34 39.52291 25.68576 35103 ft 393 kts 320°
2026-05-06 11:35 39.56412 25.63950 35077 ft 393 kts 320°
2026-05-06 11:35 39.60547 25.59295 35078 ft 394 kts 320°
2026-05-06 11:36 39.64680 25.54632 35083 ft 395 kts 320°
2026-05-06 11:36 39.68803 25.49986 35089 ft 395 kts 320°
2026-05-06 11:37 39.72948 25.45303 35094 ft 395 kts 320°
2026-05-06 11:37 39.77096 25.40618 35098 ft 395 kts 320°
2026-05-06 11:38 39.81240 25.35922 35104 ft 395 kts 319°
2026-05-06 11:38 39.85369 25.31210 35071 ft 395 kts 319°
2026-05-06 11:39 39.89480 25.26533 35071 ft 396 kts 319°
2026-05-06 11:39 39.93263 25.21338 35076 ft 398 kts 307°
2026-05-06 11:40 39.96452 25.15435 35079 ft 399 kts 307°
2026-05-06 11:40 39.99656 25.09531 35077 ft 399 kts 307°
2026-05-06 11:41 40.02841 25.03665 35081 ft 399 kts 307°
2026-05-06 11:41 40.06040 24.97749 35061 ft 399 kts 307°
2026-05-06 11:42 40.09237 24.91822 35063 ft 400 kts 307°
2026-05-06 11:42 40.12437 24.85877 35068 ft 400 kts 307°
2026-05-06 11:43 40.15617 24.79957 35075 ft 400 kts 307°
2026-05-06 11:43 40.18808 24.73996 35076 ft 400 kts 307°
2026-05-06 11:44 40.23607 24.65040 35076 ft 401 kts 307°
2026-05-06 11:44 40.26801 24.59057 35079 ft 401 kts 307°
2026-05-06 11:45 40.29974 24.53100 35082 ft 401 kts 307°
2026-05-06 11:45 40.33163 24.47091 34616 ft 407 kts 307°
2026-05-06 11:46 40.34787 24.44032 34163 ft 404 kts 307°
2026-05-06 11:46 40.36381 24.41030 34053 ft 400 kts 307°
2026-05-06 11:46 40.39570 24.35011 34089 ft 403 kts 306°
2026-05-06 11:47 40.42769 24.28954 34088 ft 404 kts 306°
2026-05-06 11:47 40.45950 24.22933 34082 ft 404 kts 306°
2026-05-06 11:48 40.49148 24.16861 34082 ft 404 kts 306°
2026-05-06 11:48 40.52340 24.10787 34075 ft 404 kts 306°
2026-05-06 11:49 40.55531 24.04709 34063 ft 404 kts 306°
2026-05-06 11:49 40.58699 23.98652 34067 ft 405 kts 306°
2026-05-06 11:50 40.61890 23.92539 34057 ft 405 kts 306°
2026-05-06 11:50 40.65075 23.86419 34069 ft 405 kts 306°
2026-05-06 11:51 40.67723 23.81323 34065 ft 406 kts 306°
2026-05-06 11:51 40.71429 23.74192 34060 ft 406 kts 306°
2026-05-06 11:52 40.74614 23.68048 34050 ft 406 kts 305°
2026-05-06 11:52 40.77258 23.62942 34056 ft 407 kts 305°
2026-05-06 11:53 40.80453 23.56759 34052 ft 407 kts 305°
2026-05-06 11:53 40.83633 23.50574 34049 ft 407 kts 305°
2026-05-06 11:54 40.86812 23.44388 34053 ft 407 kts 305°
2026-05-06 11:54 40.89969 23.38231 34043 ft 408 kts 305°
2026-05-06 11:55 40.93150 23.32019 34038 ft 408 kts 304°
2026-05-06 11:55 40.96331 23.25790 34039 ft 409 kts 304°
2026-05-06 11:56 41.00032 23.18540 34045 ft 409 kts 304°
2026-05-06 11:56 41.02698 23.13311 34044 ft 409 kts 304°
2026-05-06 11:57 41.05858 23.07092 34044 ft 410 kts 304°
2026-05-06 11:57 41.09023 23.00840 34045 ft 410 kts 304°
2026-05-06 11:58 41.12563 22.94925 34037 ft 410 kts 310°
2026-05-06 11:58 41.16253 22.89159 34044 ft 410 kts 310°
2026-05-06 11:59 41.19916 22.83416 34040 ft 410 kts 310°
2026-05-06 11:59 41.23571 22.77662 34029 ft 410 kts 309°
2026-05-06 12:00 41.27306 22.71919 34030 ft 411 kts 311°
2026-05-06 12:00 41.31177 22.66320 34035 ft 412 kts 312°
2026-05-06 12:01 41.35046 22.60766 34041 ft 412 kts 311°
2026-05-06 12:01 41.38903 22.55133 34038 ft 412 kts 311°
2026-05-06 12:02 41.42740 22.49465 34037 ft 412 kts 311°
2026-05-06 12:02 41.46590 22.43787 34029 ft 412 kts 311°
2026-05-06 12:03 41.50439 22.38106 34029 ft 413 kts 311°
2026-05-06 12:03 41.54265 22.32455 34024 ft 413 kts 310°
2026-05-06 12:04 41.58112 22.26755 34025 ft 413 kts 310°
2026-05-06 12:04 41.61952 22.21045 34026 ft 413 kts 310°
2026-05-06 12:05 41.65801 22.15323 34031 ft 413 kts 310°
2026-05-06 12:05 41.69620 22.09643 34021 ft 414 kts 310°
2026-05-06 12:06 41.73464 22.03909 34017 ft 414 kts 310°
2026-05-06 12:06 41.77305 21.98154 34019 ft 414 kts 310°
2026-05-06 12:07 41.81147 21.92391 34016 ft 414 kts 310°
2026-05-06 12:07 41.84963 21.86666 34017 ft 415 kts 310°
2026-05-06 12:08 41.88798 21.80906 34020 ft 415 kts 310°
2026-05-06 12:08 41.92631 21.75130 34024 ft 415 kts 310°
2026-05-06 12:09 41.96472 21.69318 34015 ft 415 kts 310°
2026-05-06 12:09 42.00308 21.63506 34017 ft 416 kts 310°
2026-05-06 12:10 42.04121 21.57728 34016 ft 416 kts 310°
2026-05-06 12:10 42.07964 21.51898 34020 ft 416 kts 310°
2026-05-06 12:11 42.11793 21.46068 34026 ft 416 kts 310°
2026-05-06 12:11 42.15601 21.40260 34027 ft 416 kts 310°
2026-05-06 12:12 42.19389 21.34374 34028 ft 416 kts 309°
2026-05-06 12:12 42.23128 21.28414 34034 ft 416 kts 308°
2026-05-06 12:13 42.26859 21.22439 34045 ft 416 kts 308°
2026-05-06 12:13 42.30600 21.16471 34046 ft 416 kts 308°
2026-05-06 12:14 42.34317 21.10550 34045 ft 417 kts 308°
2026-05-06 12:14 42.38067 21.04568 34039 ft 417 kts 308°
2026-05-06 12:15 42.41812 20.98568 34035 ft 417 kts 308°
2026-05-06 12:15 42.45556 20.92560 34038 ft 417 kts 308°
2026-05-06 12:16 42.49270 20.86585 34053 ft 418 kts 308°
2026-05-06 12:16 42.53011 20.80558 34050 ft 417 kts 308°
2026-05-06 12:17 42.56749 20.74524 34043 ft 418 kts 308°
2026-05-06 12:17 42.60484 20.68484 34034 ft 418 kts 308°
2026-05-06 12:18 42.64193 20.62477 34036 ft 418 kts 308°
2026-05-06 12:18 42.67934 20.56415 34016 ft 419 kts 308°
2026-05-06 12:19 42.71670 20.50341 34020 ft 418 kts 307°
2026-05-06 12:19 42.75367 20.44298 34021 ft 419 kts 307°
2026-05-06 12:20 42.79093 20.38198 34088 ft 419 kts 307°
2026-05-06 12:20 42.80822 20.35363 34302 ft 421 kts 307°
2026-05-06 12:20 42.82694 20.32293 34535 ft 422 kts 307°
2026-05-06 12:21 42.84583 20.29222 34784 ft 422 kts 308°
2026-05-06 12:21 42.86502 20.26202 35016 ft 422 kts 309°
2026-05-06 12:21 42.88447 20.23204 35261 ft 421 kts 309°
2026-05-06 12:21 42.90392 20.20226 35504 ft 421 kts 309°
2026-05-06 12:22 42.92311 20.17278 35755 ft 421 kts 309°
2026-05-06 12:22 42.94242 20.14287 35944 ft 420 kts 309°
2026-05-06 12:22 42.98104 20.08283 36004 ft 421 kts 308°
2026-05-06 12:23 43.01951 20.02263 36001 ft 421 kts 308°
2026-05-06 12:23 43.05788 19.96230 35999 ft 421 kts 308°
2026-05-06 12:24 43.09608 19.90233 35993 ft 421 kts 308°
2026-05-06 12:24 43.13455 19.84191 35993 ft 421 kts 308°
2026-05-06 12:25 43.17292 19.78142 36003 ft 421 kts 308°
2026-05-06 12:25 43.21129 19.72081 35998 ft 421 kts 308°
2026-05-06 12:26 43.24966 19.66010 35993 ft 421 kts 308°
2026-05-06 12:26 43.28767 19.59967 36001 ft 421 kts 308°
2026-05-06 12:27 43.32578 19.53895 35991 ft 421 kts 308°
2026-05-06 12:27 43.36406 19.47790 35999 ft 422 kts 307°
2026-05-06 12:28 43.40238 19.41680 35985 ft 422 kts 308°
2026-05-06 12:28 43.44052 19.35597 35983 ft 423 kts 308°
2026-05-06 12:29 43.47881 19.29470 35981 ft 422 kts 307°
2026-05-06 12:29 43.51708 19.23323 35975 ft 423 kts 307°
2026-05-06 12:30 43.55528 19.17173 35974 ft 423 kts 307°
2026-05-06 12:30 43.59328 19.11041 35985 ft 423 kts 307°
2026-05-06 12:31 43.63140 19.04866 35982 ft 423 kts 307°
2026-05-06 12:31 43.66957 18.98680 35986 ft 423 kts 307°
2026-05-06 12:32 43.70778 18.92486 35980 ft 423 kts 307°
2026-05-06 12:32 43.74569 18.86315 35978 ft 424 kts 307°
2026-05-06 12:33 43.78384 18.80089 35969 ft 424 kts 307°
2026-05-06 12:33 43.82198 18.73855 35969 ft 425 kts 307°
2026-05-06 12:34 43.86006 18.67606 35990 ft 424 kts 307°